[[{"header":{"parameterUnit":"m.s-1","parameterCategory":1,"la1":30.2991,"la2":30.254,"lo1":-89.0895,"lo2":-89.0444,"dy":0.0017,"dx":0.0017,"nx":28,"ny":28,"refTime":"2024-04-28T21:00:00:Z","depth":0,"parameterNumber":2,"parameterNumberName":"U-component_of_WINDS"},"data":[0,0,0,0,0,0,0,0,0,0,0,0,0,0,0,0,0,0,0,0,0,0,0,0,0,0,0,0,0,0,0,0,0,0,0,0,0,0,0,0,0,0,0,0,0,0,0,0,0,0,0,0,0,0,0,0,0,0,-7.949,-7.9491,0,-7.9592,-7.9593,-7.9594,-7.9509,-7.9505,-7.9502,-7.9499,-7.9596,-7.9602,-7.9608,0,0,0,0,0,0,0,0,0,0,0,0,0,-7.9218,-7.9223,-7.949,-7.9492,-7.9493,-7.9592,-7.9593,-7.9594,-7.951,-7.9505,-7.9501,-7.9497,-7.9594,-7.9601,-7.9608,0,0,0,0,0,0,0,0,0,0,0,0,0,-7.9329,-7.9225,-7.949,-7.9463,-7.9461,-7.9591,-7.9593,-7.9595,-7.951,-7.9505,-7.95,-7.9495,-7.9592,-7.9601,-7.9609,-7.977,0,0,-7.9636,-7.964,0,0,0,0,0,0,0,0,-7.9323,-7.9339,-7.9465,-7.9465,-7.9463,-7.9532,-7.9533,-7.9653,-7.9512,-7.9492,-7.9498,-7.9492,-7.9579,-7.9588,-7.9619,-7.9774,-7.9779,-7.9637,-7.9642,-7.9646,-7.9649,0,0,0,0,0,0,0,-7.9316,-7.9334,-7.953,-7.9467,-7.9466,-7.9443,-7.9453,-7.9555,-7.9563,-7.9493,-7.9487,-7.9501,-7.9577,-7.9611,-7.9621,-7.978,-7.9637,-7.9645,-7.965,-7.9654,-8.0072,-8.0077,0,0,0,0,0,0,-7.9311,-7.9329,-7.9527,-7.9533,-7.9379,-7.9453,-7.9464,-7.9515,-7.9562,-7.9564,-7.9505,-7.9496,-7.9598,-7.961,-7.9624,-7.9813,-7.9646,-7.9654,-7.966,-8.0066,-8.0073,-8.0079,0,0,0,0,0,0,-7.9306,-7.933,-7.9523,-7.943,-7.9452,-7.9463,-7.9522,-7.952,-7.9553,-7.9571,-7.9572,-7.9538,-7.9594,-7.9611,-7.9734,-7.9815,-7.9658,-7.9666,-8.0059,-8.0068,-8.0076,-8.0194,0,0,0,0,0,0,-7.9298,-7.9328,-7.9391,-7.9432,-7.9458,-7.9634,-7.9527,-7.9526,-7.957,-7.9559,-7.9602,-7.9604,-7.9592,-7.9722,-7.9743,-7.9824,-7.9673,-8.0052,-8.0063,-8.0073,-8.0183,-8.0206,-8.0225,0,0,0,0,0,-7.9289,-7.9419,-7.9394,-7.9418,-7.9536,-7.9638,-7.9653,-7.9637,-7.9577,-7.9638,-7.965,-7.9603,-7.9804,-7.9735,-7.9758,-7.9844,-8.0046,-8.006,-8.0072,-8.0173,-8.0201,-8.0225,0,0,0,0,0,0,-7.9384,-7.9423,-7.9396,-7.9544,-7.9589,-7.9624,-7.9701,-7.9668,-7.9729,-7.9716,-7.9693,-7.9703,-7.9833,-7.9851,-7.9773,-8.0001,-7.9915,-7.9933,-7.9984,-8.0011,-8.0031,-8.0022,-7.9681,0,0,0,0,0,-7.9423,-7.9505,-7.9534,-7.9661,-7.9685,-7.969,-7.9734,-7.9719,-7.9763,-7.9781,-7.9801,-7.9845,-7.9918,-7.9966,-8.0034,-8.0187,-8.0194,-8.0257,-8.0279,-8.0296,-8.031,-8.0391,-8.0419,-8.0122,-8.0122,-8.0122,0,0,-7.9502,-7.9534,-7.9586,-7.9681,-7.9714,-7.9797,-7.9706,-7.9798,-7.9858,-7.9794,-7.9911,-7.9929,-7.9976,-8.0114,-8.0176,-8.0133,-8.0395,-8.0313,-8.0326,-8.0331,-8.0407,-8.0435,-8.046,-8.0131,-8.0129,-8.0128,0,0,-7.9688,-7.9722,-7.983,-7.9866,-7.9918,-7.9921,-7.9948,-7.9989,-7.9998,-8.0117,-8.007,-8.0142,-8.0268,-8.0303,-8.0338,-8.0541,-8.0499,-8.0564,-8.0672,-8.0751,-8.0775,-8.0795,-8.0865,-8.089,-8.0579,-8.058,-8.058,0,-7.9778,-7.9904,-7.989,-7.9986,-8.0028,-7.9977,-8.0086,-8.0121,-8.0192,-8.0221,-8.0173,-8.0331,-8.036,-8.0505,-8.0555,-8.0586,-8.0613,-8.0556,-8.0773,-8.0793,-8.0812,-8.0878,-8.0905,-8.0587,-8.0586,-8.0585,-8.0585,0,-8.0012,-8.01,-8.0181,-8.0253,-8.0305,-8.0407,-8.0407,-8.0461,-8.0443,-8.045,-8.0571,-8.0604,-8.0677,-8.0711,-8.0693,-8.0854,-8.0826,-8.0777,-8.0688,-8.0848,-8.0909,-8.0935,-8.0597,-8.0595,-8.0593,-8.0591,0,0,-8.0256,-8.0322,-8.0351,-8.0383,-8.0439,-8.0505,-8.0605,-8.0679,-8.0725,-8.0777,-8.0858,-8.0968,-8.0923,-8.0962,-8.0948,-8.1018,-8.1174,-8.096,-8.096,-8.0995,-8.135,-8.1384,-8.1414,-8.1149,-8.1154,-8.1158,-8.1345,0,-8.0442,-8.0616,-8.0608,-8.077,-8.085,-8.0805,-8.0891,-8.0934,-8.0945,-8.1013,-8.1024,-8.1101,-8.1037,-8.106,-8.1128,-8.1141,-8.1244,-8.1128,-8.122,-8.1224,-8.1206,-8.1446,-8.1482,-8.1658,-8.137,-8.1374,-8.1377,0,-8.0681,-8.0743,-8.0914,-8.0958,-8.0991,-8.107,-8.1137,-8.1204,-8.1251,-8.1254,-8.13,-8.1275,-8.1373,-8.1288,-8.1422,-8.1343,-8.1381,-8.1394,-8.14,-8.1404,-8.1307,-8.1453,-8.1714,-8.1738,-8.1415,-8.1412,-8.1409,0,-8.0837,-8.0964,-8.1083,-8.1112,-8.1167,-8.1223,-8.1248,-8.1291,-8.1336,-8.1395,-8.1424,-8.1494,-8.153,-8.1584,-8.1578,-8.1517,-8.1715,-8.1628,-8.1717,-8.1717,-8.1756,-8.1753,-8.2022,-8.1789,-8.1788,-8.1788,-8.1787,0,-8.1043,-8.1149,-8.1154,-8.1226,-8.1343,-8.1333,-8.1448,-8.1467,-8.1506,-8.158,-8.1546,-8.1616,-8.1606,-8.1676,-8.1672,-8.1783,-8.1801,-8.1803,-8.18,-8.1804,-8.1803,-8.1825,-8.1811,-8.1795,-8.1793,-8.1792,-8.1791,0,-8.1235,-8.1244,-8.1369,-8.1413,-8.1426,-8.151,-8.1546,-8.1614,-8.1624,-8.1718,-8.1739,-8.1753,-8.1833,-8.1834,-8.1926,-8.1923,-8.2058,-8.2043,-8.2042,-8.2038,-8.2125,-8.2115,-8.2414,-8.2451,-8.2198,-8.22,-8.2202,0,-8.1364,-8.1445,-8.1498,-8.1546,-8.1575,-8.1653,-8.17,-8.1694,-8.1744,-8.1805,-8.1865,-8.1943,-8.2004,-8.2135,-8.2152,-8.2222,-8.2206,-8.2306,-8.2216,-8.2217,-8.2203,-8.2197,-8.2203,-8.2322,-8.2325,-8.2327,-8.2329,0,-8.159,-8.1591,-8.1661,-8.1733,-8.1791,-8.1847,-8.1898,-8.1939,-8.1939,-8.1997,-8.208,-8.2128,-8.2223,-8.23,-8.2368,-8.2392,-8.236,-8.2359,-8.2382,-8.2384,-8.2379,-8.2379,-8.2086,-8.235,-8.2348,-8.2347,-8.2345,-8.2345,-8.1752,-8.1821,-8.1869,-8.1948,-8.1988,-8.2037,-8.2103,-8.2122,-8.2192,-8.227,-8.2262,-8.2354,-8.24,-8.2488,-8.2519,-8.2589,-8.2554,-8.2589,-8.2597,-8.2604,-8.2612,-8.2372,-8.2602,-8.2602,-8.2601,-8.2601,-8.26,0,-8.1973,-8.2003,-8.2076,-8.2151,-8.2213,-8.2182,-8.2238,-8.2291,-8.2373,-8.242,-8.2482,-8.2577,-8.2652,-8.2677,-8.2749,-8.2801,-8.2788,-8.282,-8.2814,-8.2819,-8.2641,-8.2612,-8.2829,-8.2829,-8.2829,-8.2829,-8.2829,-8.2829,-8.2095,-8.221,-8.2217,-8.2351,-8.2379,-8.247,-8.2505,-8.255,-8.2587,-8.2696,-8.2759,-8.2776,-8.2813,-8.2888,-8.2955,-8.296,-8.2987,-8.3024,-8.3023,-8.2855,-8.2832,-8.281,-8.2782,-8.3031,-8.3031,-8.3194,-8.3196,-8.3197]},{"header":{"parameterUnit":"m.s-1","parameterCategory":1,"la1":30.2991,"la2":30.254,"lo1":-89.0895,"lo2":-89.0444,"dy":0.0017,"dx":0.0017,"nx":28,"ny":28,"refTime":"2024-04-28T21:00:00:Z","depth":0,"parameterNumber":3,"parameterNumberName":"V-component_of_WINDS"},"data":[0,0,0,0,0,0,0,0,0,0,0,0,0,0,0,0,0,0,0,0,0,0,0,0,0,0,0,0,0,0,0,0,0,0,0,0,0,0,0,0,0,0,0,0,0,0,0,0,0,0,0,0,0,0,0,0,0,0,3.4841,3.4841,0,3.4873,3.4873,3.4874,3.4869,3.4868,3.4868,3.4867,3.4897,3.4899,3.49,0,0,0,0,0,0,0,0,0,0,0,0,0,3.4773,3.4775,3.4841,3.4841,3.4841,3.4873,3.4873,3.4874,3.4869,3.4868,3.4868,3.4867,3.4897,3.4898,3.49,0,0,0,0,0,0,0,0,0,0,0,0,0,3.4804,3.4775,3.4841,3.4843,3.4843,3.4873,3.4873,3.4874,3.4869,3.4868,3.4868,3.4867,3.4896,3.4898,3.49,3.4928,0,0,3.4906,3.4907,0,0,0,0,0,0,0,0,3.4802,3.4806,3.4842,3.4843,3.4843,3.4866,3.4861,3.4892,3.4869,3.4859,3.4867,3.4866,3.4887,3.489,3.4898,3.493,3.4931,3.4906,3.4908,3.4908,3.4909,0,0,0,0,0,0,0,3.48,3.4805,3.4853,3.4843,3.4844,3.4842,3.4845,3.4867,3.4877,3.486,3.486,3.4864,3.4888,3.4896,3.4898,3.4932,3.4906,3.4908,3.4909,3.491,3.4991,3.4991,0,0,0,0,0,0,3.4798,3.4803,3.4852,3.4854,3.4821,3.4844,3.4848,3.486,3.4877,3.4879,3.4865,3.4864,3.4893,3.4896,3.49,3.4935,3.4908,3.491,3.4911,3.499,3.4991,3.4992,0,0,0,0,0,0,3.4796,3.4802,3.4851,3.4829,3.4835,3.4846,3.4859,3.4861,3.4869,3.4881,3.4882,3.4871,3.4893,3.4897,3.4922,3.4936,3.4911,3.4913,3.4988,3.499,3.4991,3.5005,0,0,0,0,0,0,3.4794,3.4802,3.4812,3.4829,3.4836,3.4873,3.486,3.4862,3.4873,3.4872,3.4887,3.4889,3.4892,3.4919,3.4924,3.4938,3.4914,3.4987,3.4989,3.4991,3.5003,3.5007,3.501,0,0,0,0,0,3.4792,3.4814,3.4813,3.4819,3.485,3.4874,3.4878,3.4882,3.4874,3.4885,3.4893,3.4888,3.4934,3.4922,3.4927,3.4942,3.4986,3.4989,3.4991,3.5002,3.5006,3.501,0,0,0,0,0,0,3.4796,3.4816,3.4815,3.4843,3.4857,3.4873,3.4887,3.4886,3.4902,3.49,3.4904,3.4907,3.4933,3.494,3.4926,3.4971,3.4959,3.4962,3.4966,3.497,3.4973,3.497,3.4916,0,0,0,0,0,3.4801,3.482,3.4835,3.4858,3.4866,3.4876,3.4886,3.4888,3.4903,3.4908,3.4917,3.4931,3.4948,3.4959,3.4976,3.5005,3.5008,3.5018,3.5021,3.5024,3.5026,3.5043,3.5048,3.4999,3.4999,3.4999,0,0,3.481,3.4823,3.4834,3.486,3.4871,3.489,3.488,3.49,3.4914,3.4911,3.4936,3.4943,3.4958,3.4986,3.4999,3.4993,3.5041,3.5026,3.5028,3.5029,3.5046,3.5051,3.5055,3.5,3.5,3.5,0,0,3.4836,3.4847,3.4869,3.4881,3.4899,3.4906,3.4911,3.4928,3.4934,3.4959,3.4958,3.4974,3.5004,3.5015,3.5025,3.5059,3.5056,3.5064,3.508,3.5097,3.5101,3.5104,3.5117,3.5121,3.5067,3.5067,3.5067,0,3.4844,3.4873,3.488,3.4901,3.4913,3.4913,3.4935,3.4946,3.4968,3.4976,3.4969,3.5008,3.5018,3.5049,3.5058,3.5066,3.5072,3.5062,3.51,3.5103,3.5107,3.5119,3.5123,3.5068,3.5068,3.5068,3.5068,0,3.4883,3.4904,3.4919,3.4943,3.4956,3.4978,3.4987,3.5,3.5002,3.501,3.5037,3.5049,3.5069,3.5077,3.5078,3.5109,3.5105,3.5099,3.5087,3.5112,3.5124,3.5128,3.5069,3.5069,3.5069,3.5068,0,0,3.491,3.494,3.4945,3.4957,3.4978,3.4994,3.5016,3.5037,3.5048,3.5064,3.5083,3.5109,3.5105,3.5116,3.5119,3.5134,3.5161,3.5127,3.5127,3.5133,3.5197,3.5201,3.5206,3.516,3.5161,3.5162,3.5196,0,3.4939,3.4979,3.4987,3.5021,3.5041,3.5043,3.5062,3.5077,3.5086,3.5103,3.5112,3.5131,3.5124,3.5131,3.5146,3.5155,3.5174,3.5152,3.5177,3.5178,3.5173,3.5212,3.5215,3.5247,3.52,3.5201,3.5201,0,3.4977,3.4996,3.5033,3.5054,3.5063,3.508,3.5101,3.5118,3.5136,3.5141,3.5155,3.5157,3.518,3.5168,3.52,3.5185,3.5195,3.5202,3.5203,3.5205,3.519,3.5214,3.5257,3.5261,3.5208,3.5208,3.5207,0,3.4994,3.5029,3.5056,3.5066,3.5091,3.5103,3.5114,3.5131,3.5144,3.5162,3.5171,3.5191,3.5202,3.5218,3.5225,3.5215,3.5257,3.5245,3.5262,3.5262,3.5269,3.5269,3.5314,3.5277,3.5277,3.5277,3.5277,0,3.5024,3.5047,3.5064,3.5081,3.5107,3.5116,3.5141,3.5152,3.5168,3.5186,3.5189,3.5206,3.5215,3.5234,3.524,3.5266,3.5271,3.5275,3.5276,3.5275,3.5274,3.5281,3.5279,3.5278,3.5278,3.5278,3.5277,0,3.5046,3.5059,3.5089,3.5112,3.5118,3.5136,3.5155,3.5171,3.5181,3.5205,3.5211,3.5225,3.5247,3.5257,3.5284,3.5288,3.5318,3.5318,3.5312,3.5313,3.5329,3.5327,3.538,3.5387,3.5346,3.5346,3.5346,0,3.5065,3.5083,3.5108,3.5122,3.5134,3.5155,3.517,3.518,3.5194,3.5217,3.5231,3.5254,3.5273,3.5309,3.5321,3.5342,3.5342,3.5359,3.5345,3.5343,3.5342,3.5341,3.5343,3.5361,3.5362,3.5362,3.5362,0,3.5097,3.5103,3.5124,3.5148,3.5165,3.5184,3.5202,3.5213,3.5226,3.5243,3.5267,3.5282,3.5311,3.5333,3.5356,3.5366,3.5366,3.5367,3.5372,3.537,3.5367,3.5369,3.5319,3.5365,3.5365,3.5365,3.5365,3.5364,3.5118,3.5135,3.5156,3.518,3.5196,3.5213,3.5231,3.5243,3.5264,3.529,3.5294,3.532,3.5339,3.5369,3.5381,3.5401,3.5397,3.5404,3.5405,3.5407,3.5408,3.5364,3.5405,3.5405,3.5405,3.5405,3.5405,0,3.515,3.5165,3.5187,3.5214,3.5233,3.5234,3.5255,3.527,3.5294,3.5312,3.5331,3.536,3.5383,3.5398,3.5421,3.5434,3.5435,3.544,3.5438,3.5441,3.5411,3.5404,3.5439,3.5439,3.5439,3.5439,3.5439,3.5439,3.5169,3.5198,3.5207,3.5245,3.5259,3.5285,3.5297,3.5314,3.5329,3.5361,3.5381,3.5392,3.5409,3.5434,3.5455,3.5459,3.5467,3.5472,3.5476,3.5447,3.5443,3.544,3.5434,3.5474,3.5474,3.5504,3.5505,3.5505]}]]